Location: *
(51.1248°S, 108.4023°W)
Time: 04:57:34
(UTC+00:00)

APEX - Pass Details

Date: 15 June 2021
Orbit: 328 x 1074 km, 69.9° (Epoch: 31 July)

Event Time Altitude Azimuth Distance (km) Brightness Sun altitude
Exits shadow 13:42:50 17° 209° (SSW) 1,341 4.9 -13.7°
Maximum altitude 13:45:40 81° 123° (ESE) 454 2.9 -13.3°
Drops below altitude 10° 13:48:46 10° 34° (NE) 1,430 6.3 -12.8°
Sets 13:50:36 0° 33° (NNE) 2,214 7.4 -12.5°
